Ypsilanti, MI

2:49 AM EDT on August 20, 2017 (GMT -0400)
Willow Run

Weather History for KYIP - April, 2014

Change the Weather History Date:

Friday, April 18, 2014

  Actual Average Record
Temperature  
Mean Temperature 58 °F -  
Max Temperature 69 °F 62 °F 87 °F (2016)
Min Temperature 45 °F 38 °F 24 °F (1983)
Degree Days  
Heating Degree Days 7    
Growing Degree Days 8 (Base 50)    
Moisture  
Dew Point 39 °F    
Average Humidity 54    
Maximum Humidity 68    
Minimum Humidity 32    
Precipitation  
Precipitation 0.00 in - - ()
Sea Level Pressure  
Sea Level Pressure 30.25 in    
Wind  
Wind Speed 5 mph (WSW)    
Max Wind Speed 14 mph    
Max Gust Speed -    
Visibility 10 miles    
Events Rain    
Averages and records for this station are not official NWS values.
T = Trace of Precipitation, MM = Missing Value Source: NWS Daily Summary

Daily Weather History Graph

Daily Weather History Graph

Search for Another Location

Airport or City:

Trip Planner

Search our weather history database for the weather conditions in past years. The results will help you decide how hot, cold, wet, or windy it might be!

Date:

Astronomy

Apr. 18, 2014 Rise Set
Actual Time 6:48 AM EDT 8:18 PM EDT
Civil Twilight 6:19 AM EDT 8:48 PM EDT
Nautical Twilight 5:43 AM EDT 9:23 PM EDT
Astronomical Twilight 5:06 AM EDT 10:01 PM EDT
Moon No Moon Rise 9:07 AM EDT (4/18)
Length of Visible Light 14h 29m
Length of Day
13h 30m
Waning Gibbous, 87% of the Moon is Illuminated
Apr 18
Waning Gibbous
Apr 22
Last Quarter
Apr 29
New
May 6
First Quarter
May 14
Full

Hourly Weather History & Observations

Time (EDT) Temp. Windchill Dew Point Humidity Pressure Visibility Wind Dir Wind Speed Gust Speed Precip Events Conditions
12:53 AM 52.0 °F - 35.1 °F 53% 30.24 in 10.0 mi South 3.5 mph - N/A   Mostly Cloudy
1:53 AM 52.0 °F - 36.0 °F 54% 30.23 in 10.0 mi South 4.6 mph - N/A   Overcast
2:53 AM 53.1 °F - 37.9 °F 57% 30.22 in 10.0 mi WSW 4.6 mph - N/A   Overcast
3:53 AM 53.1 °F - 36.0 °F 52% 30.22 in 10.0 mi WNW 4.6 mph - N/A   Overcast
4:53 AM 50.0 °F - 37.0 °F 61% 30.22 in 10.0 mi Calm Calm - N/A   Clear
5:53 AM 51.1 °F - 36.0 °F 56% 30.24 in 10.0 mi NW 3.5 mph - N/A   Scattered Clouds
6:53 AM 53.1 °F - 37.9 °F 57% 30.27 in 10.0 mi WNW 3.5 mph - N/A   Scattered Clouds
7:53 AM 50.0 °F - 39.9 °F 68% 30.27 in 10.0 mi ESE 3.5 mph - N/A   Overcast
8:53 AM 53.1 °F - 42.1 °F 66% 30.28 in 8.0 mi Calm Calm - 0.00 in Rain Light Rain
9:53 AM 55.9 °F - 43.0 °F 62% 30.27 in 10.0 mi Calm Calm - 0.00 in   Overcast
10:53 AM 57.0 °F - 42.1 °F 57% 30.27 in 10.0 mi Calm Calm - N/A   Overcast
11:53 AM 59.0 °F - 42.1 °F 53% 30.27 in 10.0 mi Variable 4.6 mph - N/A   Overcast
12:53 PM 63.0 °F - 43.0 °F 48% 30.27 in 10.0 mi WSW 12.7 mph - N/A   Mostly Cloudy
1:53 PM 62.1 °F - 42.1 °F 48% 30.27 in 10.0 mi WNW 8.1 mph - 0.00 in   Overcast
2:53 PM 64.9 °F - 42.1 °F 43% 30.26 in 10.0 mi West 9.2 mph - N/A   Scattered Clouds
3:53 PM 66.0 °F - 37.0 °F 34% 30.24 in 10.0 mi NW 8.1 mph - N/A   Mostly Cloudy
4:53 PM 66.0 °F - 35.1 °F 32% 30.23 in 10.0 mi NW 10.4 mph - N/A   Scattered Clouds
5:53 PM 63.0 °F - 42.1 °F 46% 30.23 in 9.0 mi ESE 5.8 mph - N/A   Partly Cloudy
6:53 PM 61.0 °F - 43.0 °F 52% 30.22 in 9.0 mi ESE 9.2 mph - N/A   Partly Cloudy
7:53 PM 57.9 °F - 43.0 °F 58% 30.23 in 8.0 mi ESE 9.2 mph - N/A   Partly Cloudy
8:53 PM 55.0 °F - 42.1 °F 62% 30.25 in 9.0 mi SE 5.8 mph - N/A   Overcast
9:53 PM 52.0 °F - 39.9 °F 63% 30.29 in 10.0 mi ENE 6.9 mph - N/A   Overcast
11:53 PM 45.0 °F 38.5 °F 33.1 °F 63% 30.34 in 10.0 mi NE 13.8 mph - N/A   Clear